Wetterdaten: Freitag, 02.01.2015
Datum Zeit Temperatur Luftfeuchte Luftdruck Regen Wind Richtung Richtung Taupunkt Windchill Windben
02.01.2015 00:00 -8,4 C 87 % 1031,1 hPa 0,0 l/m 0,0 km/h (0 Bft) S 180 -10,2 C -8,6 C 0,0 km/h (0 Bft)
02.01.2015 00:05 -8,3 C 87 % 1031,1 hPa 0,0 l/m 0,0 km/h (0 Bft) S 180 -10,1 C -8,6 C 0,0 km/h (0 Bft)
02.01.2015 00:10 -8,4 C 87 % 1031,1 hPa 0,0 l/m 0,0 km/h (0 Bft) S 180 -10,2 C -8,6 C 0,0 km/h (0 Bft)
02.01.2015 00:15 -8,3 C 87 % 1031,1 hPa 0,0 l/m 0,0 km/h (0 Bft) S 180 -10,1 C -8,6 C 0,0 km/h (0 Bft)
02.01.2015 00:20 -7,8 C 87 % 1030,9 hPa 0,0 l/m 0,0 km/h (0 Bft) S 180 -9,6 C -8,6 C 0,0 km/h (0 Bft)
02.01.2015 00:25 -7,6 C 88 % 1030,9 hPa 0,0 l/m 0,0 km/h (0 Bft) S 180 -9,2 C -8,6 C 0,0 km/h (0 Bft)
02.01.2015 00:30 -7,3 C 88 % 1030,9 hPa 0,0 l/m 0,0 km/h (0 Bft) S 180 -8,9 C -8,6 C 0,0 km/h (0 Bft)
02.01.2015 00:35 -7,8 C 88 % 1030,9 hPa 0,0 l/m 0,0 km/h (0 Bft) S 180 -9,4 C -8,6 C 0,0 km/h (0 Bft)
02.01.2015 00:40 -8,1 C 88 % 1030,4 hPa 0,0 l/m 0,0 km/h (0 Bft) S 180 -9,7 C -8,6 C 0,0 km/h (0 Bft)
02.01.2015 00:45 -8,1 C 88 % 1030,4 hPa 0,0 l/m 0,2 km/h (0 Bft) O-SO 112 -9,7 C -8,0 C 0,0 km/h (0 Bft)
02.01.2015 00:50 -7,8 C 88 % 1030,4 hPa 0,0 l/m 0,2 km/h (0 Bft) O-SO 112 -9,4 C -8,0 C 0,0 km/h (0 Bft)
02.01.2015 00:55 -7,7 C 88 % 1030,4 hPa 0,0 l/m 0,0 km/h (0 Bft) O-SO 112 -9,3 C -7,9 C 0,0 km/h (0 Bft)
02.01.2015 00:58 -7,7 C 88 % 1030,2 hPa 0,0 l/m 0,0 km/h (0 Bft) O-SO 112 -9,3 C -7,9 C 0,0 km/h (0 Bft)
02.01.2015 01:00 -7,8 C 88 % 1030,2 hPa 0,0 l/m 0,0 km/h (0 Bft) O-SO 112 -9,4 C -7,9 C 0,0 km/h (0 Bft)
02.01.2015 01:05 -7,6 C 88 % 1030,2 hPa 0,0 l/m 0,0 km/h (0 Bft) O-SO 112 -9,2 C -7,9 C 0,0 km/h (0 Bft)
02.01.2015 01:10 -7,6 C 88 % 1030,2 hPa 0,0 l/m 0,0 km/h (0 Bft) S-SO 157 -9,2 C -7,8 C 0,0 km/h (0 Bft)
02.01.2015 01:15 -7,4 C 88 % 1030,1 hPa 0,0 l/m 0,0 km/h (0 Bft) S-SO 157 -9,0 C -7,8 C 0,0 km/h (0 Bft)
02.01.2015 01:20 -7,5 C 88 % 1030,1 hPa 0,0 l/m 0,0 km/h (0 Bft) O-SO 112 -9,1 C -7,5 C 0,0 km/h (0 Bft)
02.01.2015 01:25 -7,1 C 88 % 1030,1 hPa 0,0 l/m 0,0 km/h (0 Bft) SO 135 -8,7 C -7,4 C 0,0 km/h (0 Bft)
02.01.2015 01:30 -6,6 C 89 % 1030,1 hPa 0,0 l/m 0,0 km/h (0 Bft) O-SO 112 -8,1 C -7,1 C 0,0 km/h (0 Bft)
02.01.2015 01:35 -6,6 C 89 % 1030,1 hPa 0,0 l/m 0,0 km/h (0 Bft) O-SO 112 -8,1 C -7,1 C 0,0 km/h (0 Bft)
02.01.2015 01:40 -6,9 C 89 % 1029,9 hPa 0,0 l/m 0,2 km/h (0 Bft) O-SO 112 -8,4 C -7,0 C 0,0 km/h (0 Bft)
02.01.2015 01:45 -6,9 C 89 % 1029,9 hPa 0,0 l/m 0,2 km/h (0 Bft) SO 135 -8,4 C -6,8 C 0,0 km/h (0 Bft)
02.01.2015 01:50 -6,7 C 89 % 1029,9 hPa 0,0 l/m 0,2 km/h (0 Bft) O-SO 112 -8,2 C -6,7 C 0,0 km/h (0 Bft)
02.01.2015 01:56 -6,8 C 89 % 1029,6 hPa 0,0 l/m 0,0 km/h (0 Bft) SO 135 -8,3 C -6,6 C 0,0 km/h (0 Bft)
02.01.2015 02:00 -6,8 C 89 % 1029,6 hPa 0,0 l/m 0,0 km/h (0 Bft) SO 135 -8,3 C -6,6 C 0,0 km/h (0 Bft)
02.01.2015 02:05 -6,7 C 89 % 1029,6 hPa 0,0 l/m 0,0 km/h (0 Bft) O-SO 112 -8,2 C -6,5 C 0,0 km/h (0 Bft)
02.01.2015 02:10 -6,7 C 89 % 1029,6 hPa 0,0 l/m 0,0 km/h (0 Bft) O-SO 112 -8,2 C -6,3 C 0,0 km/h (0 Bft)
02.01.2015 02:15 -6,7 C 89 % 1029,6 hPa 0,0 l/m 0,0 km/h (0 Bft) O-SO 112 -8,2 C -6,3 C 0,0 km/h (0 Bft)
02.01.2015 02:20 -6,4 C 89 % 1029,6 hPa 0,0 l/m 0,0 km/h (0 Bft) SO 135 -7,9 C -6,3 C 0,0 km/h (0 Bft)
02.01.2015 02:25 -6,5 C 89 % 1029,6 hPa 0,0 l/m 0,0 km/h (0 Bft) SO 135 -8,0 C -6,3 C 0,0 km/h (0 Bft)
02.01.2015 02:30 -6,1 C 89 % 1029,6 hPa 0,0 l/m 0,0 km/h (0 Bft) SO 135 -7,6 C -6,3 C 0,0 km/h (0 Bft)
02.01.2015 02:35 -5,8 C 89 % 1029,6 hPa 0,0 l/m 0,0 km/h (0 Bft) SO 135 -7,3 C -6,1 C 0,0 km/h (0 Bft)
02.01.2015 02:40 -6,0 C 90 % 1029,8 hPa 0,0 l/m 0,0 km/h (0 Bft) SO 135 -7,4 C -6,1 C 0,0 km/h (0 Bft)
02.01.2015 02:45 -5,9 C 90 % 1029,8 hPa 0,0 l/m 0,0 km/h (0 Bft) SO 135 -7,3 C -6,1 C 0,0 km/h (0 Bft)
02.01.2015 02:50 -5,8 C 90 % 1029,8 hPa 0,0 l/m 0,0 km/h (0 Bft) SO 135 -7,2 C -6,1 C 0,0 km/h (0 Bft)
02.01.2015 02:55 -5,5 C 90 % 1029,8 hPa 0,0 l/m 0,0 km/h (0 Bft) SO 135 -6,9 C -6,1 C 0,0 km/h (0 Bft)
02.01.2015 03:00 -5,6 C 90 % 1030,1 hPa 0,0 l/m 0,0 km/h (0 Bft) SO 135 -7,0 C -6,1 C 0,0 km/h (0 Bft)
02.01.2015 03:05 -5,2 C 90 % 1030,1 hPa 0,0 l/m 0,0 km/h (0 Bft) SO 135 -6,6 C -6,1 C 0,0 km/h (0 Bft)
02.01.2015 03:10 -4,4 C 91 % 1030,1 hPa 0,0 l/m 0,0 km/h (0 Bft) SO 135 -5,6 C -6,1 C 0,0 km/h (0 Bft)
02.01.2015 03:15 -4,2 C 91 % 1030,1 hPa 0,0 l/m 0,0 km/h (0 Bft) SO 135 -5,4 C -6,1 C 0,0 km/h (0 Bft)
02.01.2015 03:20 -4,7 C 91 % 1030,2 hPa 0,0 l/m 0,0 km/h (0 Bft) SO 135 -5,9 C -6,1 C 0,0 km/h (0 Bft)
02.01.2015 03:25 -4,7 C 91 % 1030,2 hPa 0,0 l/m 0,0 km/h (0 Bft) SO 135 -5,9 C -6,1 C 0,0 km/h (0 Bft)
02.01.2015 03:30 -3,5 C 92 % 1030,2 hPa 0,0 l/m 0,0 km/h (0 Bft) SO 135 -4,6 C -6,1 C 0,0 km/h (0 Bft)
02.01.2015 03:35 -3,0 C 92 % 1030,2 hPa 0,0 l/m 0,0 km/h (0 Bft) SO 135 -4,1 C -6,1 C 0,0 km/h (0 Bft)
02.01.2015 03:40 -2,0 C 93 % 1029,8 hPa 0,0 l/m 0,0 km/h (0 Bft) SO 135 -3,0 C -6,1 C 0,0 km/h (0 Bft)
02.01.2015 03:45 -2,1 C 93 % 1029,8 hPa 0,0 l/m 0,0 km/h (0 Bft) SO 135 -3,1 C -6,1 C 0,0 km/h (0 Bft)
02.01.2015 03:50 -2,2 C 93 % 1029,8 hPa 0,0 l/m 0,0 km/h (0 Bft) SO 135 -3,2 C -6,1 C 0,0 km/h (0 Bft)
02.01.2015 03:55 -2,4 C 93 % 1029,8 hPa 0,0 l/m 0,0 km/h (0 Bft) SO 135 -3,4 C -6,1 C 0,0 km/h (0 Bft)
02.01.2015 03:58 -2,8 C 93 % 1029,6 hPa 0,0 l/m 0,0 km/h (0 Bft) SO 135 -3,8 C -6,1 C 0,0 km/h (0 Bft)
02.01.2015 04:00 -2,8 C 93 % 1029,6 hPa 0,0 l/m 0,0 km/h (0 Bft) O-SO 112 -3,8 C -2,9 C 0,0 km/h (0 Bft)
02.01.2015 04:05 -3,0 C 93 % 1029,6 hPa 0,0 l/m 0,2 km/h (0 Bft) O 90 -4,0 C -3,2 C 0,0 km/h (0 Bft)
02.01.2015 04:10 -3,3 C 93 % 1029,6 hPa 0,0 l/m 0,2 km/h (0 Bft) O-SO 112 -4,3 C -3,4 C 0,0 km/h (0 Bft)
02.01.2015 04:15 -3,3 C 93 % 1029,3 hPa 0,0 l/m 0,0 km/h (0 Bft) SO 135 -4,3 C -3,6 C 0,0 km/h (0 Bft)
02.01.2015 04:20 -3,3 C 93 % 1029,3 hPa 0,0 l/m 0,3 km/h (0 Bft) NW 315 -4,3 C -3,7 C 1,6 km/h (1 Bft)
02.01.2015 04:25 -3,5 C 93 % 1029,3 hPa 0,0 l/m 0,3 km/h (0 Bft) NW 315 -4,5 C -3,9 C 0,0 km/h (0 Bft)
02.01.2015 04:30 -3,8 C 93 % 1029,3 hPa 0,0 l/m 0,2 km/h (0 Bft) NW 315 -4,8 C -4,0 C 1,6 km/h (1 Bft)
02.01.2015 04:35 -3,8 C 93 % 1029,3 hPa 0,0 l/m 0,2 km/h (0 Bft) NW 315 -4,8 C -4,0 C 1,6 km/h (1 Bft)
02.01.2015 04:40 -3,6 C 93 % 1029,2 hPa 0,0 l/m 0,2 km/h (0 Bft) NW 315 -4,6 C -4,0 C 0,0 km/h (0 Bft)
02.01.2015 04:45 -3,7 C 93 % 1029,2 hPa 0,0 l/m 0,2 km/h (0 Bft) NW 315 -4,7 C -4,0 C 0,0 km/h (0 Bft)
02.01.2015 04:50 -3,6 C 93 % 1029,2 hPa 0,0 l/m 0,2 km/h (0 Bft) O-SO 112 -4,6 C -4,0 C 3,4 km/h (1 Bft)
02.01.2015 04:55 -3,5 C 93 % 1029,2 hPa 0,0 l/m 0,3 km/h (0 Bft) NO 45 -4,5 C -4,0 C 0,0 km/h (0 Bft)
02.01.2015 05:00 -3,5 C 93 % 1029,0 hPa 0,0 l/m 0,3 km/h (0 Bft) NO 45 -4,5 C -4,0 C 0,0 km/h (0 Bft)
02.01.2015 05:05 -3,5 C 93 % 1029,0 hPa 0,0 l/m 0,3 km/h (0 Bft) O-SO 112 -4,5 C -3,9 C 1,8 km/h (1 Bft)
02.01.2015 05:10 -3,3 C 93 % 1029,0 hPa 0,0 l/m 0,3 km/h (0 Bft) SO 135 -4,3 C -3,7 C 0,0 km/h (0 Bft)
02.01.2015 05:15 -3,5 C 93 % 1029,0 hPa 0,0 l/m 0,2 km/h (0 Bft) SO 135 -4,5 C -3,7 C 0,0 km/h (0 Bft)
02.01.2015 05:20 -3,4 C 93 % 1029,1 hPa 0,0 l/m 0,0 km/h (0 Bft) SO 135 -4,4 C -3,8 C 0,0 km/h (0 Bft)
02.01.2015 05:25 -3,2 C 93 % 1029,1 hPa 0,0 l/m 0,0 km/h (0 Bft) NO 45 -4,2 C -3,8 C 0,0 km/h (0 Bft)
02.01.2015 05:30 -3,5 C 93 % 1029,1 hPa 0,0 l/m 0,0 km/h (0 Bft) O-SO 112 -4,5 C -3,8 C 0,0 km/h (0 Bft)
02.01.2015 05:35 -3,5 C 93 % 1029,1 hPa 0,0 l/m 0,2 km/h (0 Bft) O-SO 112 -4,5 C -3,9 C 0,0 km/h (0 Bft)
02.01.2015 05:40 -3,5 C 93 % 1028,8 hPa 0,0 l/m 0,2 km/h (0 Bft) O-SO 112 -4,5 C -4,0 C 0,0 km/h (0 Bft)
02.01.2015 05:45 -3,5 C 93 % 1028,8 hPa 0,0 l/m 0,0 km/h (0 Bft) NO 45 -4,5 C -4,0 C 0,0 km/h (0 Bft)
02.01.2015 05:50 -3,5 C 93 % 1028,8 hPa 0,0 l/m 0,0 km/h (0 Bft) SO 135 -4,5 C -3,9 C 1,8 km/h (1 Bft)
02.01.2015 05:55 -3,5 C 93 % 1028,8 hPa 0,0 l/m 0,0 km/h (0 Bft) SO 135 -4,5 C -3,9 C 0,0 km/h (0 Bft)
02.01.2015 06:00 -3,8 C 93 % 1028,5 hPa 0,0 l/m 0,0 km/h (0 Bft) SO 135 -4,8 C -3,9 C 0,0 km/h (0 Bft)
02.01.2015 06:05 -3,6 C 93 % 1028,5 hPa 0,0 l/m 0,0 km/h (0 Bft) SO 135 -4,6 C -4,0 C 0,0 km/h (0 Bft)
02.01.2015 06:10 -3,3 C 93 % 1028,5 hPa 0,0 l/m 0,3 km/h (0 Bft) SO 135 -4,3 C -3,9 C 0,0 km/h (0 Bft)
02.01.2015 06:15 -2,8 C 94 % 1028,5 hPa 0,0 l/m 0,8 km/h (0 Bft) SO 135 -3,6 C -3,4 C 0,0 km/h (0 Bft)
02.01.2015 06:20 -3,1 C 94 % 1028,8 hPa 0,0 l/m 0,6 km/h (0 Bft) O-NO 67 -3,9 C -3,2 C 0,0 km/h (0 Bft)
02.01.2015 06:25 -3,9 C 93 % 1028,8 hPa 0,0 l/m 0,3 km/h (0 Bft) NO 45 -4,9 C -3,6 C 0,0 km/h (0 Bft)
02.01.2015 06:30 -4,3 C 93 % 1028,8 hPa 0,0 l/m 0,0 km/h (0 Bft) O 90 -5,3 C -4,1 C 0,0 km/h (0 Bft)
02.01.2015 06:35 -4,2 C 93 % 1028,8 hPa 0,0 l/m 0,2 km/h (0 Bft) O-SO 112 -5,2 C -4,3 C 0,0 km/h (0 Bft)
02.01.2015 06:40 -3,6 C 93 % 1028,8 hPa 0,0 l/m 0,3 km/h (0 Bft) NO 45 -4,6 C -4,1 C 0,0 km/h (0 Bft)
02.01.2015 06:45 -3,7 C 93 % 1028,8 hPa 0,0 l/m 0,3 km/h (0 Bft) NO 45 -4,7 C -4,0 C 0,0 km/h (0 Bft)
02.01.2015 06:50 -3,1 C 93 % 1028,8 hPa 0,0 l/m 1,4 km/h (1 Bft) O-SO 112 -4,1 C -4,0 C 4,3 km/h (1 Bft)
02.01.2015 06:53 -2,7 C 94 % 1028,8 hPa 0,0 l/m 2,6 km/h (1 Bft) O-SO 112 -3,5 C -4,2 C 2,9 km/h (1 Bft)
02.01.2015 06:55 -1,0 C 94 % 1029,3 hPa 0,0 l/m 4,5 km/h (1 Bft) S-SW 202 -1,8 C -4,6 C 12,2 km/h (2 Bft)
02.01.2015 07:00 -1,3 C 94 % 1029,3 hPa 0,0 l/m 5,3 km/h (1 Bft) S-SO 157 -2,1 C -3,4 C 2,9 km/h (1 Bft)
02.01.2015 07:05 -0,9 C 94 % 1029,3 hPa 0,0 l/m 5,3 km/h (1 Bft) SW 225 -1,7 C -3,3 C 5,5 km/h (1 Bft)
02.01.2015 07:10 -0,9 C 94 % 1029,3 hPa 0,0 l/m 5,3 km/h (1 Bft) SW 225 -1,7 C -3,3 C 5,5 km/h (1 Bft)
02.01.2015 07:15 -1,5 C 94 % 1029,2 hPa 0,0 l/m 2,7 km/h (1 Bft) N-NW 337 -2,3 C -1,1 C 0,0 km/h (0 Bft)
02.01.2015 07:20 -2,2 C 94 % 1029,2 hPa 0,0 l/m 2,3 km/h (1 Bft) S 180 -3,0 C -1,1 C 3,1 km/h (1 Bft)
02.01.2015 07:25 -1,4 C 94 % 1029,2 hPa 0,0 l/m 2,9 km/h (1 Bft) S-SO 157 -2,2 C -1,5 C 2,6 km/h (1 Bft)
02.01.2015 07:30 -1,4 C 94 % 1029,2 hPa 0,0 l/m 2,9 km/h (1 Bft) S-SO 157 -2,2 C -1,5 C 2,6 km/h (1 Bft)
02.01.2015 07:35 -2,2 C 94 % 1029,2 hPa 0,0 l/m 2,9 km/h (1 Bft) S-SO 157 -3,0 C -1,7 C 2,6 km/h (1 Bft)
02.01.2015 07:40 -1,3 C 95 % 1029,6 hPa 0,0 l/m 2,7 km/h (1 Bft) SW 225 -2,0 C -1,7 C 4,8 km/h (1 Bft)
02.01.2015 07:45 -0,4 C 95 % 1029,6 hPa 0,0 l/m 4,5 km/h (1 Bft) S 180 -1,1 C -2,3 C 8,9 km/h (2 Bft)
02.01.2015 07:50 -0,3 C 95 % 1029,6 hPa 0,0 l/m 5,8 km/h (2 Bft) S 180 -1,0 C -2,7 C 5,5 km/h (1 Bft)
02.01.2015 07:55 -0,3 C 95 % 1029,6 hPa 0,0 l/m 6,1 km/h (2 Bft) S 180 -1,0 C -2,7 C 6,6 km/h (2 Bft)
02.01.2015 08:00 -0,3 C 95 % 1029,3 hPa 0,0 l/m 5,5 km/h (1 Bft) S-SO 157 -1,0 C -2,3 C 14,5 km/h (3 Bft)
02.01.2015 08:05 -0,3 C 95 % 1029,3 hPa 0,0 l/m 4,0 km/h (1 Bft) S 180 -1,0 C -1,6 C 4,8 km/h (1 Bft)
02.01.2015 08:10 -0,5 C 95 % 1029,3 hPa 0,0 l/m 3,4 km/h (1 Bft) S 180 -1,2 C -1,1 C 1,6 km/h (1 Bft)
02.01.2015 08:15 -0,5 C 95 % 1029,3 hPa 0,0 l/m 2,9 km/h (1 Bft) S-SO 157 -1,2 C -0,7 C 4,8 km/h (1 Bft)
02.01.2015 08:20 -0,4 C 96 % 1029,4 hPa 0,0 l/m 2,9 km/h (1 Bft) S-SW 202 -1,0 C -0,7 C 6,0 km/h (2 Bft)
02.01.2015 08:25 -0,2 C 96 % 1029,4 hPa 0,0 l/m 3,5 km/h (1 Bft) W-SW 247 -0,8 C -1,1 C 2,3 km/h (1 Bft)
02.01.2015 08:30 -0,1 C 96 % 1029,4 hPa 0,0 l/m 3,9 km/h (1 Bft) SO 135 -0,7 C -1,3 C 6,9 km/h (2 Bft)
02.01.2015 08:35 -0,6 C 96 % 1029,4 hPa 0,0 l/m 3,9 km/h (1 Bft) SO 135 -1,2 C -1,3 C 6,9 km/h (2 Bft)
02.01.2015 08:40 -1,3 C 96 % 1029,7 hPa 0,0 l/m 1,0 km/h (0 Bft) O-SO 112 -1,9 C -0,5 C 0,0 km/h (0 Bft)
02.01.2015 08:45 -1,5 C 96 % 1029,7 hPa 0,0 l/m 0,5 km/h (0 Bft) O 90 -2,1 C -0,9 C 0,0 km/h (0 Bft)
02.01.2015 08:50 -1,0 C 96 % 1029,7 hPa 0,0 l/m 2,3 km/h (1 Bft) S-SW 202 -1,6 C -1,2 C 3,9 km/h (1 Bft)
02.01.2015 08:55 -0,6 C 96 % 1029,7 hPa 0,0 l/m 3,7 km/h (1 Bft) S 180 -1,2 C -2,0 C 7,6 km/h (2 Bft)
02.01.2015 09:00 -0,3 C 96 % 1029,9 hPa 0,0 l/m 3,9 km/h (1 Bft) S-SO 157 -0,9 C -1,7 C 3,9 km/h (1 Bft)
02.01.2015 09:05 -0,4 C 96 % 1029,9 hPa 0,0 l/m 4,2 km/h (1 Bft) SW 225 -1,0 C -1,7 C 5,8 km/h (2 Bft)
02.01.2015 09:10 -0,1 C 96 % 1029,9 hPa 0,0 l/m 4,0 km/h (1 Bft) S-SW 202 -0,7 C -1,4 C 6,9 km/h (2 Bft)
02.01.2015 09:15 0,0 C 96 % 1029,9 hPa 0,0 l/m 4,0 km/h (1 Bft) W 270 -0,6 C -1,3 C 4,8 km/h (1 Bft)
02.01.2015 09:20 0,1 C 96 % 1029,3 hPa 0,0 l/m 4,0 km/h (1 Bft) W 270 -0,5 C -1,3 C 4,8 km/h (1 Bft)
02.01.2015 09:25 0,1 C 96 % 1029,3 hPa 0,0 l/m 4,0 km/h (1 Bft) W 270 -0,5 C -1,3 C 4,8 km/h (1 Bft)
02.01.2015 09:30 0,2 C 96 % 1029,3 hPa 0,0 l/m 1,1 km/h (1 Bft) S-SO 157 -0,4 C 0,0 C 1,6 km/h (1 Bft)
02.01.2015 09:35 0,2 C 96 % 1029,3 hPa 0,0 l/m 1,6 km/h (1 Bft) SO 135 -0,4 C 0,2 C 2,3 km/h (1 Bft)
02.01.2015 09:40 0,3 C 96 % 1028,9 hPa 0,0 l/m 2,4 km/h (1 Bft) SO 135 -0,3 C 0,4 C 4,2 km/h (1 Bft)
02.01.2015 09:45 0,3 C 96 % 1028,9 hPa 0,0 l/m 2,4 km/h (1 Bft) S-SO 157 -0,3 C 0,8 C 3,7 km/h (1 Bft)
02.01.2015 09:50 0,8 C 96 % 1028,9 hPa 0,0 l/m 2,4 km/h (1 Bft) S-SO 157 0,2 C 1,5 C 3,9 km/h (1 Bft)
02.01.2015 09:53 1,6 C 96 % 1028,9 hPa 0,0 l/m 1,8 km/h (1 Bft) S-SO 157 1,0 C 2,4 C 1,8 km/h (1 Bft)
02.01.2015 09:55 2,4 C 96 % 1028,9 hPa 0,0 l/m 1,9 km/h (1 Bft) S-SO 157 1,8 C 2,7 C 4,8 km/h (1 Bft)
02.01.2015 10:00 2,2 C 96 % 1028,9 hPa 0,0 l/m 1,9 km/h (1 Bft) S-SO 157 1,6 C 2,7 C 4,8 km/h (1 Bft)
02.01.2015 10:05 2,1 C 96 % 1028,9 hPa 0,0 l/m 1,9 km/h (1 Bft) S-SO 157 1,5 C 2,7 C 4,8 km/h (1 Bft)
02.01.2015 10:10 2,0 C 96 % 1028,9 hPa 0,0 l/m 0,0 km/h (0 Bft) S-SO 157 1,4 C 2,7 C 0,0 km/h (0 Bft)
02.01.2015 10:15 2,1 C 96 % 1029,1 hPa 0,0 l/m 0,0 km/h (0 Bft) S-SO 157 1,5 C 2,7 C 0,0 km/h (0 Bft)
02.01.2015 10:20 2,7 C 96 % 1029,1 hPa 0,0 l/m 0,0 km/h (0 Bft) S-SO 157 2,1 C 2,7 C 0,0 km/h (0 Bft)
02.01.2015 10:25 3,0 C 95 % 1029,1 hPa 0,0 l/m 0,0 km/h (0 Bft) S-SO 157 2,3 C 2,7 C 0,0 km/h (0 Bft)
02.01.2015 10:30 3,0 C 95 % 1029,1 hPa 0,0 l/m 0,0 km/h (0 Bft) S-SO 157 2,3 C 2,7 C 0,0 km/h (0 Bft)
02.01.2015 10:35 3,0 C 95 % 1029,1 hPa 0,0 l/m 0,0 km/h (0 Bft) S-SO 157 2,3 C 2,7 C 0,0 km/h (0 Bft)
02.01.2015 10:40 2,5 C 95 % 1029,5 hPa 0,0 l/m 0,0 km/h (0 Bft) S-SO 157 1,8 C 2,7 C 0,0 km/h (0 Bft)
02.01.2015 10:45 2,4 C 95 % 1029,5 hPa 0,0 l/m 0,0 km/h (0 Bft) S-SO 157 1,7 C 2,7 C 0,0 km/h (0 Bft)
02.01.2015 10:50 2,5 C 95 % 1029,5 hPa 0,0 l/m 0,0 km/h (0 Bft) S-SO 157 1,8 C 2,7 C 0,0 km/h (0 Bft)
02.01.2015 10:55 2,7 C 95 % 1029,5 hPa 0,0 l/m 0,0 km/h (0 Bft) S-SO 157 2,0 C 2,7 C 0,0 km/h (0 Bft)
02.01.2015 11:00 2,7 C 95 % 1029,5 hPa 0,0 l/m 0,0 km/h (0 Bft) S-SO 157 2,0 C 2,7 C 0,0 km/h (0 Bft)
02.01.2015 11:05 2,6 C 94 % 1029,5 hPa 0,0 l/m 0,0 km/h (0 Bft) S-SO 157 1,7 C 2,7 C 0,0 km/h (0 Bft)
02.01.2015 11:10 2,6 C 94 % 1029,5 hPa 0,0 l/m 0,0 km/h (0 Bft) S-SO 157 1,7 C 2,7 C 0,0 km/h (0 Bft)
02.01.2015 11:15 2,8 C 94 % 1029,5 hPa 0,0 l/m 0,0 km/h (0 Bft) S-SO 157 1,9 C 2,7 C 0,0 km/h (0 Bft)
02.01.2015 11:20 3,3 C 93 % 1029,4 hPa 0,0 l/m 0,0 km/h (0 Bft) S-SO 157 2,3 C 2,7 C 0,0 km/h (0 Bft)
02.01.2015 11:25 3,6 C 93 % 1029,4 hPa 0,0 l/m 0,0 km/h (0 Bft) S-SO 157 2,6 C 2,7 C 0,0 km/h (0 Bft)
02.01.2015 11:30 3,9 C 92 % 1029,4 hPa 0,0 l/m 0,0 km/h (0 Bft) S-SO 157 2,7 C 2,7 C 0,0 km/h (0 Bft)
02.01.2015 11:35 4,0 C 90 % 1029,4 hPa 0,0 l/m 0,0 km/h (0 Bft) S-SO 157 2,5 C 2,7 C 0,0 km/h (0 Bft)
02.01.2015 11:40 4,1 C 89 % 1029,1 hPa 0,0 l/m 0,0 km/h (0 Bft) S-SO 157 2,5 C 2,7 C 0,0 km/h (0 Bft)
02.01.2015 11:45 4,1 C 89 % 1029,1 hPa 0,0 l/m 0,0 km/h (0 Bft) S-SO 157 2,5 C 2,7 C 0,0 km/h (0 Bft)
02.01.2015 11:50 4,2 C 89 % 1029,1 hPa 0,0 l/m 0,0 km/h (0 Bft) S-SO 157 2,6 C 2,7 C 0,0 km/h (0 Bft)
02.01.2015 11:55 4,4 C 88 % 1029,1 hPa 0,0 l/m 9,0 km/h (2 Bft) S-SW 202 2,6 C 2,2 C 8,0 km/h (2 Bft)
02.01.2015 12:00 4,4 C 87 % 1029,1 hPa 0,0 l/m 8,0 km/h (2 Bft) W 270 2,4 C 3,5 C 8,4 km/h (2 Bft)
02.01.2015 12:05 4,4 C 86 % 1029,1 hPa 0,0 l/m 8,5 km/h (2 Bft) W 270 2,3 C 3,1 C 11,3 km/h (2 Bft)
02.01.2015 12:10 4,4 C 86 % 1029,1 hPa 0,0 l/m 11,4 km/h (2 Bft) SW 225 2,3 C 0,6 C 12,1 km/h (2 Bft)
02.01.2015 12:15 4,6 C 86 % 1029,1 hPa 0,0 l/m 11,7 km/h (2 Bft) W-SW 247 2,5 C 0,3 C 13,0 km/h (3 Bft)
02.01.2015 12:20 4,6 C 84 % 1029,2 hPa 0,0 l/m 10,9 km/h (2 Bft) W 270 2,1 C 1,1 C 10,1 km/h (2 Bft)
02.01.2015 12:25 4,7 C 83 % 1029,2 hPa 0,0 l/m 10,8 km/h (2 Bft) W 270 2,1 C 1,2 C 11,7 km/h (2 Bft)
02.01.2015 12:30 4,9 C 82 % 1029,2 hPa 0,0 l/m 10,3 km/h (2 Bft) W-SW 247 2,1 C 1,6 C 9,5 km/h (2 Bft)
02.01.2015 12:35 4,8 C 82 % 1029,2 hPa 0,0 l/m 9,3 km/h (2 Bft) W-SW 247 2,0 C 2,5 C 8,4 km/h (2 Bft)
02.01.2015 12:40 5,2 C 76 % 1028,9 hPa 0,0 l/m 8,2 km/h (2 Bft) SW 225 1,3 C 3,4 C 7,6 km/h (2 Bft)
02.01.2015 12:45 5,4 C 77 % 1028,9 hPa 0,0 l/m 7,6 km/h (2 Bft) SW 225 1,7 C 4,3 C 5,6 km/h (1 Bft)
02.01.2015 12:50 6,5 C 73 % 1028,9 hPa 0,0 l/m 6,8 km/h (2 Bft) S 180 2,0 C 5,8 C 8,7 km/h (2 Bft)
02.01.2015 12:53 6,4 C 78 % 1028,9 hPa 0,0 l/m 6,9 km/h (2 Bft) W 270 2,8 C 5,9 C 8,7 km/h (2 Bft)
02.01.2015 12:55 6,0 C 77 % 1028,6 hPa 0,0 l/m 7,6 km/h (2 Bft) SW 225 2,3 C 4,8 C 7,2 km/h (2 Bft)
02.01.2015 13:00 6,1 C 73 % 1028,6 hPa 0,0 l/m 7,6 km/h (2 Bft) W-SW 247 1,6 C 4,6 C 11,9 km/h (2 Bft)
02.01.2015 13:05 6,1 C 72 % 1028,6 hPa 0,0 l/m 8,0 km/h (2 Bft) S-SW 202 1,4 C 3,9 C 11,7 km/h (2 Bft)
02.01.2015 13:10 6,2 C 70 % 1028,6 hPa 0,0 l/m 8,5 km/h (2 Bft) SW 225 1,1 C 3,3 C 13,4 km/h (3 Bft)
02.01.2015 13:15 6,6 C 68 % 1028,1 hPa 0,0 l/m 9,0 km/h (2 Bft) S 180 1,1 C 2,8 C 16,1 km/h (3 Bft)
02.01.2015 13:20 6,9 C 66 % 1028,1 hPa 0,0 l/m 9,0 km/h (2 Bft) S 180 1,0 C 2,8 C 16,1 km/h (3 Bft)
02.01.2015 13:25 7,0 C 66 % 1028,1 hPa 0,0 l/m 9,0 km/h (2 Bft) S 180 1,1 C 2,8 C 16,1 km/h (3 Bft)
02.01.2015 13:30 7,0 C 66 % 1028,1 hPa 0,0 l/m 9,0 km/h (2 Bft) S 180 1,1 C 2,8 C 16,1 km/h (3 Bft)
02.01.2015 13:35 7,1 C 67 % 1028,1 hPa 0,0 l/m 0,0 km/h (0 Bft) S 180 1,4 C 5,0 C 0,0 km/h (0 Bft)
02.01.2015 13:40 7,3 C 67 % 1027,9 hPa 0,0 l/m 0,0 km/h (0 Bft) S 180 1,6 C 5,0 C 0,0 km/h (0 Bft)
02.01.2015 13:45 7,2 C 63 % 1027,9 hPa 0,0 l/m 0,0 km/h (0 Bft) S 180 0,6 C 5,0 C 0,0 km/h (0 Bft)
02.01.2015 13:50 7,2 C 64 % 1027,9 hPa 0,0 l/m 0,0 km/h (0 Bft) S 180 0,9 C 5,0 C 0,0 km/h (0 Bft)
02.01.2015 13:55 7,2 C 63 % 1027,9 hPa 0,0 l/m 0,0 km/h (0 Bft) S 180 0,6 C 5,0 C 0,0 km/h (0 Bft)
02.01.2015 14:00 7,0 C 64 % 1027,6 hPa 0,0 l/m 0,0 km/h (0 Bft) S 180 0,7 C 5,0 C 0,0 km/h (0 Bft)
02.01.2015 14:05 7,0 C 66 % 1027,6 hPa 0,0 l/m 0,0 km/h (0 Bft) S 180 1,1 C 5,0 C 0,0 km/h (0 Bft)
02.01.2015 14:10 7,2 C 61 % 1027,6 hPa 0,0 l/m 0,0 km/h (0 Bft) S 180 0,2 C 5,0 C 0,0 km/h (0 Bft)
02.01.2015 14:15 7,2 C 59 % 1027,6 hPa 0,0 l/m 0,0 km/h (0 Bft) S 180 -0,3 C 5,0 C 0,0 km/h (0 Bft)
02.01.2015 14:20 7,3 C 60 % 1027,9 hPa 0,0 l/m 0,0 km/h (0 Bft) S 180 0,1 C 5,0 C 0,0 km/h (0 Bft)
02.01.2015 14:25 7,1 C 59 % 1027,9 hPa 0,0 l/m 0,0 km/h (0 Bft) S 180 -0,4 C 5,0 C 0,0 km/h (0 Bft)
02.01.2015 14:30 6,9 C 59 % 1027,9 hPa 0,0 l/m 0,0 km/h (0 Bft) S 180 -0,5 C 5,0 C 0,0 km/h (0 Bft)
02.01.2015 14:35 6,6 C 59 % 1027,9 hPa 0,0 l/m 0,0 km/h (0 Bft) S 180 -0,8 C 5,0 C 0,0 km/h (0 Bft)
02.01.2015 14:40 6,0 C 59 % 1028,2 hPa 0,0 l/m 0,0 km/h (0 Bft) S 180 -1,4 C 5,0 C 0,0 km/h (0 Bft)
02.01.2015 14:45 5,4 C 63 % 1028,2 hPa 0,0 l/m 0,0 km/h (0 Bft) S 180 -1,1 C 5,0 C 0,0 km/h (0 Bft)
02.01.2015 14:50 5,0 C 67 % 1028,2 hPa 0,0 l/m 0,0 km/h (0 Bft) S 180 -0,6 C 5,0 C 0,0 km/h (0 Bft)
02.01.2015 14:55 4,9 C 69 % 1028,2 hPa 0,0 l/m 0,0 km/h (0 Bft) S 180 -0,3 C 5,0 C 0,0 km/h (0 Bft)
02.01.2015 15:00 4,7 C 71 % 1028,6 hPa 0,0 l/m 0,0 km/h (0 Bft) S 180 -0,1 C 5,0 C 0,0 km/h (0 Bft)
02.01.2015 15:05 4,6 C 73 % 1028,6 hPa 0,0 l/m 0,0 km/h (0 Bft) S 180 0,2 C 5,0 C 0,0 km/h (0 Bft)
02.01.2015 15:10 4,5 C 73 % 1028,6 hPa 0,0 l/m 0,0 km/h (0 Bft) S 180 0,1 C 5,0 C 0,0 km/h (0 Bft)
02.01.2015 15:15 4,4 C 74 % 1028,6 hPa 0,0 l/m 0,0 km/h (0 Bft) S 180 0,2 C 5,0 C 0,0 km/h (0 Bft)
02.01.2015 15:20 4,1 C 76 % 1028,8 hPa 0,0 l/m 0,0 km/h (0 Bft) S 180 0,3 C 5,0 C 0,0 km/h (0 Bft)
02.01.2015 15:25 3,8 C 78 % 1028,8 hPa 0,0 l/m 0,0 km/h (0 Bft) S 180 0,3 C 5,0 C 0,0 km/h (0 Bft)
02.01.2015 15:30 3,5 C 80 % 1028,8 hPa 0,0 l/m 0,0 km/h (0 Bft) S 180 0,4 C 5,0 C 0,0 km/h (0 Bft)
02.01.2015 15:35 3,4 C 81 % 1028,8 hPa 0,0 l/m 0,0 km/h (0 Bft) S 180 0,5 C 5,0 C 0,0 km/h (0 Bft)
02.01.2015 15:40 3,3 C 82 % 1029,1 hPa 0,0 l/m 0,0 km/h (0 Bft) S 180 0,5 C 5,0 C 0,0 km/h (0 Bft)
02.01.2015 15:45 3,3 C 82 % 1029,1 hPa 0,0 l/m 0,0 km/h (0 Bft) S 180 0,5 C 5,0 C 0,0 km/h (0 Bft)
02.01.2015 15:50 3,0 C 83 % 1029,1 hPa 0,0 l/m 0,0 km/h (0 Bft) S 180 0,4 C 5,0 C 0,0 km/h (0 Bft)
02.01.2015 15:53 3,0 C 84 % 1029,1 hPa 0,0 l/m 0,0 km/h (0 Bft) S 180 0,6 C 5,0 C 0,0 km/h (0 Bft)
02.01.2015 15:55 3,0 C 85 % 1029,2 hPa 0,0 l/m 0,0 km/h (0 Bft) S 180 0,7 C 5,0 C 0,0 km/h (0 Bft)
02.01.2015 16:00 2,9 C 86 % 1029,2 hPa 0,0 l/m 0,0 km/h (0 Bft) S 180 0,8 C 5,0 C 0,0 km/h (0 Bft)
02.01.2015 16:05 2,8 C 87 % 1029,2 hPa 0,0 l/m 0,0 km/h (0 Bft) S 180 0,9 C 5,0 C 0,0 km/h (0 Bft)
02.01.2015 16:10 2,7 C 88 % 1029,2 hPa 0,0 l/m 0,0 km/h (0 Bft) S 180 0,9 C 5,0 C 0,0 km/h (0 Bft)
02.01.2015 16:15 2,6 C 89 % 1029,6 hPa 0,0 l/m 0,0 km/h (0 Bft) S 180 1,0 C 5,0 C 0,0 km/h (0 Bft)
02.01.2015 16:20 2,6 C 89 % 1029,6 hPa 0,0 l/m 0,0 km/h (0 Bft) S 180 1,0 C 5,0 C 0,0 km/h (0 Bft)
02.01.2015 16:25 2,5 C 91 % 1029,6 hPa 0,0 l/m 0,0 km/h (0 Bft) S 180 1,2 C 5,0 C 0,0 km/h (0 Bft)
02.01.2015 16:30 2,6 C 91 % 1029,6 hPa 0,0 l/m 0,0 km/h (0 Bft) S 180 1,3 C 5,0 C 0,0 km/h (0 Bft)
02.01.2015 16:35 2,6 C 91 % 1029,6 hPa 0,0 l/m 0,0 km/h (0 Bft) S 180 1,3 C 5,0 C 0,0 km/h (0 Bft)
02.01.2015 16:40 2,6 C 92 % 1029,0 hPa 0,0 l/m 0,0 km/h (0 Bft) S 180 1,4 C 5,0 C 0,0 km/h (0 Bft)
02.01.2015 16:45 2,6 C 92 % 1029,0 hPa 0,0 l/m 0,0 km/h (0 Bft) S 180 1,4 C 5,0 C 0,0 km/h (0 Bft)
02.01.2015 16:50 2,8 C 93 % 1029,0 hPa 0,0 l/m 0,0 km/h (0 Bft) S 180 1,8 C 5,0 C 0,0 km/h (0 Bft)
02.01.2015 16:55 2,8 C 93 % 1029,0 hPa 0,0 l/m 0,0 km/h (0 Bft) S 180 1,8 C 5,0 C 0,0 km/h (0 Bft)
02.01.2015 17:00 2,8 C 93 % 1028,9 hPa 0,0 l/m 0,0 km/h (0 Bft) S 180 1,8 C 5,0 C 0,0 km/h (0 Bft)
02.01.2015 17:05 2,8 C 93 % 1028,9 hPa 0,0 l/m 0,0 km/h (0 Bft) S 180 1,8 C 5,0 C 0,0 km/h (0 Bft)
02.01.2015 17:10 2,8 C 94 % 1028,9 hPa 0,0 l/m 0,0 km/h (0 Bft) S 180 1,9 C 5,0 C 0,0 km/h (0 Bft)
02.01.2015 17:15 2,8 C 94 % 1028,9 hPa 0,0 l/m 0,0 km/h (0 Bft) S 180 1,9 C 5,0 C 0,0 km/h (0 Bft)
02.01.2015 17:20 2,9 C 94 % 1029,2 hPa 0,0 l/m 0,0 km/h (0 Bft) S 180 2,0 C 5,0 C 0,0 km/h (0 Bft)
02.01.2015 17:25 2,9 C 94 % 1029,2 hPa 0,0 l/m 0,0 km/h (0 Bft) S 180 2,0 C 5,0 C 0,0 km/h (0 Bft)
02.01.2015 17:30 2,9 C 94 % 1029,2 hPa 0,0 l/m 0,0 km/h (0 Bft) S 180 2,0 C 5,0 C 0,0 km/h (0 Bft)
02.01.2015 17:35 2,9 C 94 % 1029,2 hPa 0,0 l/m 0,0 km/h (0 Bft) S 180 2,0 C 5,0 C 0,0 km/h (0 Bft)
02.01.2015 17:40 2,8 C 94 % 1029,6 hPa 0,0 l/m 0,0 km/h (0 Bft) S 180 1,9 C 5,0 C 0,0 km/h (0 Bft)
02.01.2015 17:45 2,8 C 94 % 1029,6 hPa 0,0 l/m 0,0 km/h (0 Bft) S 180 1,9 C 5,0 C 0,0 km/h (0 Bft)
02.01.2015 17:50 2,8 C 94 % 1029,6 hPa 0,0 l/m 0,0 km/h (0 Bft) S 180 1,9 C 5,0 C 0,0 km/h (0 Bft)
02.01.2015 17:55 2,8 C 94 % 1029,6 hPa 0,0 l/m 0,0 km/h (0 Bft) S 180 1,9 C 5,0 C 0,0 km/h (0 Bft)
02.01.2015 18:00 2,8 C 94 % 1029,8 hPa 0,0 l/m 0,0 km/h (0 Bft) S 180 1,9 C 5,0 C 0,0 km/h (0 Bft)
02.01.2015 18:05 2,8 C 94 % 1029,8 hPa 0,0 l/m 0,0 km/h (0 Bft) S 180 1,9 C 5,0 C 0,0 km/h (0 Bft)
02.01.2015 18:10 2,8 C 94 % 1029,8 hPa 0,0 l/m 0,0 km/h (0 Bft) S 180 1,9 C 5,0 C 0,0 km/h (0 Bft)
02.01.2015 18:15 2,8 C 94 % 1029,8 hPa 0,0 l/m 0,0 km/h (0 Bft) S 180 1,9 C 5,0 C 0,0 km/h (0 Bft)
02.01.2015 18:20 2,8 C 94 % 1029,4 hPa 0,0 l/m 0,0 km/h (0 Bft) S 180 1,9 C 5,0 C 0,0 km/h (0 Bft)
02.01.2015 18:25 2,8 C 94 % 1029,4 hPa 0,0 l/m 0,0 km/h (0 Bft) S 180 1,9 C 5,0 C 0,0 km/h (0 Bft)
02.01.2015 18:30 2,8 C 94 % 1029,4 hPa 0,0 l/m 0,0 km/h (0 Bft) S 180 1,9 C 5,0 C 0,0 km/h (0 Bft)
02.01.2015 18:35 2,8 C 94 % 1029,4 hPa 0,0 l/m 0,0 km/h (0 Bft) S 180 1,9 C 5,0 C 0,0 km/h (0 Bft)
02.01.2015 18:40 2,8 C 94 % 1029,6 hPa 0,0 l/m 0,0 km/h (0 Bft) S 180 1,9 C 5,0 C 0,0 km/h (0 Bft)
02.01.2015 18:45 2,8 C 94 % 1029,6 hPa 0,0 l/m 0,0 km/h (0 Bft) S 180 1,9 C 5,0 C 0,0 km/h (0 Bft)
02.01.2015 18:48 2,8 C 94 % 1029,6 hPa 0,0 l/m 0,0 km/h (0 Bft) S 180 1,9 C 5,0 C 0,0 km/h (0 Bft)
02.01.2015 18:50 2,8 C 94 % 1029,6 hPa 0,0 l/m 0,0 km/h (0 Bft) S 180 1,9 C 5,0 C 0,0 km/h (0 Bft)
02.01.2015 18:55 2,8 C 94 % 1029,7 hPa 0,0 l/m 0,0 km/h (0 Bft) S 180 1,9 C 5,0 C 0,0 km/h (0 Bft)
02.01.2015 19:00 2,8 C 94 % 1029,7 hPa 0,0 l/m 0,0 km/h (0 Bft) S 180 1,9 C 5,0 C 0,0 km/h (0 Bft)
02.01.2015 19:05 2,8 C 94 % 1029,7 hPa 0,0 l/m 0,0 km/h (0 Bft) S 180 1,9 C 5,0 C 0,0 km/h (0 Bft)
02.01.2015 19:10 2,8 C 94 % 1029,7 hPa 0,0 l/m 0,0 km/h (0 Bft) S 180 1,9 C 5,0 C 0,0 km/h (0 Bft)
02.01.2015 19:15 2,8 C 94 % 1030,1 hPa 0,0 l/m 0,0 km/h (0 Bft) S 180 1,9 C 5,0 C 0,0 km/h (0 Bft)
02.01.2015 19:20 2,8 C 94 % 1030,1 hPa 0,0 l/m 0,0 km/h (0 Bft) S 180 1,9 C 5,0 C 0,0 km/h (0 Bft)
02.01.2015 19:25 2,8 C 94 % 1030,1 hPa 0,0 l/m 0,0 km/h (0 Bft) S 180 1,9 C 5,0 C 0,0 km/h (0 Bft)
02.01.2015 19:30 2,8 C 94 % 1030,1 hPa 0,0 l/m 0,0 km/h (0 Bft) S 180 1,9 C 5,0 C 0,0 km/h (0 Bft)
02.01.2015 19:35 2,8 C 94 % 1030,1 hPa 0,0 l/m 0,0 km/h (0 Bft) S 180 1,9 C 5,0 C 0,0 km/h (0 Bft)
02.01.2015 19:40 2,8 C 94 % 1030,3 hPa 0,0 l/m 0,0 km/h (0 Bft) S 180 1,9 C 5,0 C 0,0 km/h (0 Bft)
02.01.2015 19:45 2,8 C 94 % 1030,3 hPa 0,0 l/m 0,0 km/h (0 Bft) S 180 1,9 C 5,0 C 0,0 km/h (0 Bft)
02.01.2015 19:50 2,8 C 94 % 1030,3 hPa 0,0 l/m 0,0 km/h (0 Bft) S 180 1,9 C 5,0 C 0,0 km/h (0 Bft)
02.01.2015 19:55 2,8 C 94 % 1030,3 hPa 0,0 l/m 0,0 km/h (0 Bft) S 180 1,9 C 5,0 C 0,0 km/h (0 Bft)
02.01.2015 20:00 2,8 C 94 % 1030,8 hPa 0,0 l/m 0,0 km/h (0 Bft) S 180 1,9 C 5,0 C 0,0 km/h (0 Bft)
02.01.2015 20:05 2,8 C 94 % 1030,8 hPa 0,0 l/m 0,0 km/h (0 Bft) S 180 1,9 C 5,0 C 0,0 km/h (0 Bft)
02.01.2015 20:10 2,8 C 94 % 1030,8 hPa 0,0 l/m 0,0 km/h (0 Bft) S 180 1,9 C 5,0 C 0,0 km/h (0 Bft)
02.01.2015 20:15 2,8 C 94 % 1030,8 hPa 0,0 l/m 0,0 km/h (0 Bft) S 180 1,9 C 5,0 C 0,0 km/h (0 Bft)
02.01.2015 20:20 2,8 C 94 % 1031,2 hPa 0,0 l/m 0,0 km/h (0 Bft) S 180 1,9 C 5,0 C 0,0 km/h (0 Bft)
02.01.2015 20:25 2,8 C 94 % 1031,2 hPa 0,0 l/m 0,0 km/h (0 Bft) S 180 1,9 C 5,0 C 0,0 km/h (0 Bft)
02.01.2015 20:30 2,8 C 94 % 1031,2 hPa 0,0 l/m 0,0 km/h (0 Bft) S 180 1,9 C 5,0 C 0,0 km/h (0 Bft)
02.01.2015 20:35 2,8 C 94 % 1031,2 hPa 0,0 l/m 0,0 km/h (0 Bft) S 180 1,9 C 5,0 C 0,0 km/h (0 Bft)
02.01.2015 20:40 2,8 C 94 % 1031,2 hPa 0,0 l/m 0,0 km/h (0 Bft) S 180 1,9 C 5,0 C 0,0 km/h (0 Bft)
02.01.2015 20:45 2,8 C 94 % 1031,2 hPa 0,0 l/m 0,0 km/h (0 Bft) S 180 1,9 C 5,0 C 0,0 km/h (0 Bft)
02.01.2015 20:50 2,8 C 94 % 1031,2 hPa 0,0 l/m 0,0 km/h (0 Bft) S 180 1,9 C 5,0 C 0,0 km/h (0 Bft)
02.01.2015 20:55 2,8 C 94 % 1031,2 hPa 0,0 l/m 0,0 km/h (0 Bft) S 180 1,9 C 5,0 C 0,0 km/h (0 Bft)
02.01.2015 21:00 2,8 C 94 % 1031,0 hPa 0,0 l/m 0,0 km/h (0 Bft) S 180 1,9 C 5,0 C 0,0 km/h (0 Bft)
02.01.2015 21:05 2,8 C 94 % 1031,0 hPa 0,0 l/m 0,0 km/h (0 Bft) S 180 1,9 C 5,0 C 0,0 km/h (0 Bft)
02.01.2015 21:10 2,8 C 94 % 1031,0 hPa 0,0 l/m 0,0 km/h (0 Bft) S 180 1,9 C 5,0 C 0,0 km/h (0 Bft)
02.01.2015 21:15 2,8 C 94 % 1031,0 hPa 0,0 l/m 0,0 km/h (0 Bft) S 180 1,9 C 5,0 C 0,0 km/h (0 Bft)
02.01.2015 21:20 2,8 C 94 % 1031,2 hPa 0,0 l/m 0,0 km/h (0 Bft) S 180 1,9 C 5,0 C 0,0 km/h (0 Bft)
02.01.2015 21:25 2,8 C 94 % 1031,2 hPa 0,0 l/m 0,0 km/h (0 Bft) S 180 1,9 C 5,0 C 0,0 km/h (0 Bft)
02.01.2015 21:30 2,8 C 94 % 1031,2 hPa 0,0 l/m 0,0 km/h (0 Bft) S 180 1,9 C 5,0 C 0,0 km/h (0 Bft)
02.01.2015 21:35 2,8 C 94 % 1031,2 hPa 0,0 l/m 0,0 km/h (0 Bft) S 180 1,9 C 5,0 C 0,0 km/h (0 Bft)
02.01.2015 21:40 2,8 C 94 % 1031,1 hPa 0,0 l/m 0,0 km/h (0 Bft) S 180 1,9 C 5,0 C 0,0 km/h (0 Bft)
02.01.2015 21:45 2,8 C 94 % 1031,1 hPa 0,0 l/m 0,0 km/h (0 Bft) S 180 1,9 C 5,0 C 0,0 km/h (0 Bft)
02.01.2015 21:48 2,8 C 94 % 1031,1 hPa 0,0 l/m 0,0 km/h (0 Bft) S 180 1,9 C 5,0 C 0,0 km/h (0 Bft)
02.01.2015 21:50 2,8 C 94 % 1031,1 hPa 0,0 l/m 0,0 km/h (0 Bft) S 180 1,9 C 5,0 C 0,0 km/h (0 Bft)
02.01.2015 21:55 2,8 C 94 % 1031,1 hPa 0,0 l/m 0,0 km/h (0 Bft) S 180 1,9 C 5,0 C 0,0 km/h (0 Bft)
02.01.2015 22:00 2,8 C 94 % 1031,1 hPa 0,0 l/m 0,0 km/h (0 Bft) S 180 1,9 C 5,0 C 0,0 km/h (0 Bft)
02.01.2015 22:05 2,8 C 94 % 1031,1 hPa 0,0 l/m 0,0 km/h (0 Bft) S 180 1,9 C 5,0 C 0,0 km/h (0 Bft)
02.01.2015 22:10 2,8 C 94 % 1031,1 hPa 0,0 l/m 0,0 km/h (0 Bft) S 180 1,9 C 5,0 C 0,0 km/h (0 Bft)
02.01.2015 22:15 2,8 C 94 % 1031,4 hPa 0,0 l/m 0,0 km/h (0 Bft) S 180 1,9 C 5,0 C 0,0 km/h (0 Bft)
02.01.2015 22:20 2,8 C 94 % 1031,4 hPa 0,0 l/m 0,0 km/h (0 Bft) S 180 1,9 C 5,0 C 0,0 km/h (0 Bft)
02.01.2015 22:25 2,8 C 94 % 1031,4 hPa 0,0 l/m 0,0 km/h (0 Bft) S 180 1,9 C 5,0 C 0,0 km/h (0 Bft)
02.01.2015 22:30 2,8 C 94 % 1031,4 hPa 0,0 l/m 0,0 km/h (0 Bft) S 180 1,9 C 5,0 C 0,0 km/h (0 Bft)
02.01.2015 22:35 2,8 C 94 % 1031,4 hPa 0,0 l/m 0,0 km/h (0 Bft) S 180 1,9 C 5,0 C 0,0 km/h (0 Bft)
02.01.2015 22:40 2,8 C 94 % 1032,1 hPa 0,0 l/m 0,0 km/h (0 Bft) S 180 1,9 C 5,0 C 0,0 km/h (0 Bft)
02.01.2015 22:45 2,8 C 94 % 1032,1 hPa 0,0 l/m 0,0 km/h (0 Bft) S 180 1,9 C 5,0 C 0,0 km/h (0 Bft)
02.01.2015 22:50 2,8 C 94 % 1032,1 hPa 0,0 l/m 0,0 km/h (0 Bft) S 180 1,9 C 5,0 C 0,0 km/h (0 Bft)
02.01.2015 22:55 2,8 C 94 % 1032,1 hPa 0,0 l/m 0,0 km/h (0 Bft) S 180 1,9 C 5,0 C 0,0 km/h (0 Bft)
02.01.2015 23:00 2,8 C 94 % 1032,3 hPa 0,0 l/m 0,0 km/h (0 Bft) S 180 1,9 C 5,0 C 0,0 km/h (0 Bft)
02.01.2015 23:05 2,8 C 94 % 1032,3 hPa 0,0 l/m 0,0 km/h (0 Bft) S 180 1,9 C 5,0 C 0,0 km/h (0 Bft)
02.01.2015 23:10 2,8 C 94 % 1032,3 hPa 0,0 l/m 0,0 km/h (0 Bft) S 180 1,9 C 5,0 C 0,0 km/h (0 Bft)
02.01.2015 23:15 2,8 C 94 % 1032,3 hPa 0,0 l/m 0,0 km/h (0 Bft) S 180 1,9 C 5,0 C 0,0 km/h (0 Bft)
02.01.2015 23:20 2,8 C 94 % 1032,1 hPa 0,0 l/m 0,0 km/h (0 Bft) S 180 1,9 C 5,0 C 0,0 km/h (0 Bft)
02.01.2015 23:25 2,8 C 94 % 1032,1 hPa 0,0 l/m 0,0 km/h (0 Bft) S 180 1,9 C 5,0 C 0,0 km/h (0 Bft)
02.01.2015 23:30 2,8 C 94 % 1032,1 hPa 0,0 l/m 0,0 km/h (0 Bft) S 180 1,9 C 5,0 C 0,0 km/h (0 Bft)
02.01.2015 23:35 2,8 C 94 % 1032,1 hPa 0,0 l/m 0,0 km/h (0 Bft) S 180 1,9 C 5,0 C 0,0 km/h (0 Bft)
02.01.2015 23:40 2,8 C 94 % 1032,3 hPa 0,0 l/m 0,0 km/h (0 Bft) S 180 1,9 C 5,0 C 0,0 km/h (0 Bft)
02.01.2015 23:45 2,8 C 94 % 1032,3 hPa 0,0 l/m 0,0 km/h (0 Bft) S 180 1,9 C 5,0 C 0,0 km/h (0 Bft)
02.01.2015 23:50 2,8 C 94 % 1032,3 hPa 0,0 l/m 0,0 km/h (0 Bft) S 180 1,9 C 5,0 C 0,0 km/h (0 Bft)
02.01.2015 23:55 2,8 C 94 % 1032,3 hPa 0,0 l/m 0,0 km/h (0 Bft) S 180 1,9 C 5,0 C 0,0 km/h (0 Bft)
_ Min-Zeit 00:10 14:40 14:15 - 23:55 - - 00:10 00:40 23:55
Minimum _ -8,4 C 59 % 1027,6 hPa - 0,0 km/h (0 Bft) - - -10,2 C -8,6 C 0,0 km/h (0 Bft)
_ Max-Zeit 14:20 10:20 23:55 23:55 12:15 - - 12:53 12:53 13:30
Maximum _ 7,3 C 96 % 1032,3 hPa 0,0 l/m 11,7 km/h
W-SW (2 Bft)
- - 2,8 C 5,9 C 16,1 km/h
S (3 Bft)
Durchschnitt _ 0,6 C 89 % 1029,7 hPa #0,0 l/m 1,1 km/h (1 Bft) S-SO - -1,1 C 0,8 C 1,4 km/h (1 Bft)